Content
SEND FEEDBACK

Daily
Averages
Monthly
Summary
United States of America

AGAT, GUAM


Home > North America > United States > Guam
Elevation: 110 meters     Latitude: 13 33N     Longitude: 144 50E

WEATHER
 
SELECT A DAY
Number of Records: 213,810;   Date Range: 1/1/95 - 10/21/14
 
SHARE

PRINT THIS DATA

[ ← Previous Day ]
WEATHER ALMANAC - 6 JULY, 2013
[ Next Day → ]
[ °F ]   °C
Weather ElementAverageHighLow
Temperature29.1 °C31.7 °C (12:54 pm)27.2 °C (8:54 pm)
Dewpoint24.2 °C25 °C (5:54 am)23.3 °C (7:54 am)
Humidity75.1 %85 % (5:54 am)63 % (11:54 am)
Barometer1010.5 hPa1012.2 hPa (10:54 pm)1009.5 hPa (1:54 am)
Wind Speed8 km/h14.8 km/h (11:54 am)
Weather ElementAverage
Visibility16.1 km
Wind DirectionENE (75.2 °)

Weather ElementTotal
Precipitation---
Cooling Degree Days11.2 (Base 18.3)
Growing Degree Days19.5 (Base 10)
Averaged from 27 records on 6 July, 2013
WEATHER CONDITIONS BREAKOUT
WIND DIRECTION BREAKOUT
WEATHER BY HOUR - 6 JULY, 2013
[ °F ]   °C
Local TimeTemperatureDewpointHumidityBarometerVisibilityWind DirectionWind SpeedGust SpeedPrecipitationEventsConditions
1:54 AM28.3 °C24.4 °C79 %1009.5 hPa16.1 kmESE (110°)7.4 km/hPartly Cloudy
2:54 AM28.3 °C24.4 °C79 %1009.5 hPa16.1 kmEast (90°)7.4 km/hClear
3:54 AM27.8 °C24.4 °C82 %1009.5 hPa16.1 kmEast (90°)7.4 km/hScattered Clouds
4:54 AM27.8 °C23.9 °C79 %1009.5 hPa16.1 kmEast (80°)11.1 km/hScattered Clouds
5:54 AM27.8 °C25 °C85 %1010.2 hPa16.1 kmENE (70°)9.3 km/h0 mmScattered Clouds
6:54 AM27.8 °C25 °C85 %1010.8 hPa16.1 kmEast (80°)9.3 km/h0 mmPartly Cloudy
7:54 AM28.3 °C23.3 °C74 %1011.2 hPa16.1 kmSE (130°)5.6 km/h0 mmScattered Clouds
8:54 AM30.6 °C23.9 °C67 %1011.2 hPa16.1 kmVariable11.1 km/hPartly Cloudy
9:54 AM30.6 °C23.9 °C67 %1011.5 hPa16.1 kmEast (100°)13 km/hPartly Cloudy
10:54 AM31.1 °C24.4 °C67 %1010.8 hPa16.1 kmSE (140°)13 km/hPartly Cloudy
11:54 AM31.1 °C23.3 °C63 %1010.5 hPa16.1 kmESE (120°)14.8 km/hPartly Cloudy
12:54 PM31.7 °C23.9 °C63 %1010.2 hPa16.1 kmVariable9.3 km/hScattered Clouds
1:54 PM31.1 °C24.4 °C67 %1009.8 hPa16.1 kmEast (80°)13 km/hPartly Cloudy
2:54 PM31.7 °C23.9 °C63 %1009.8 hPa16.1 kmEast (80°)14.8 km/hScattered Clouds
3:54 PM30 °C23.9 °C70 %1009.5 hPa16.1 kmEast (90°)14.8 km/hMostly Cloudy
4:40 PM30 °C24 °C70 %1010.2 hPa16.1 kmEast (100°)7.4 km/hMostly Cloudy
4:54 PM30 °C24.4 °C72 %1009.5 hPa16.1 kmEast (90°)11.1 km/hMostly Cloudy
5:16 PM30 °C24 °C70 %1010.2 hPa16.1 kmEast (80°)7.4 km/hThunderstormThunderstorm
5:54 PM28.9 °C24.4 °C76 %1009.8 hPa16.1 kmWSW (240°)5.6 km/h0 mmScattered Clouds
6:54 PM28.9 °C24.4 °C76 %1010.5 hPa16.1 kmENE (60°)5.6 km/hScattered Clouds
7:54 PM28.3 °C24.4 °C79 %1011.2 hPa14.5 kmSSE (160°)9.3 km/h0 mmRainLight Rain
8:03 PM28 °C25 °C84 %1011.9 hPa16.1 kmCalm0 mmThunderstormThunderstorm
8:27 PM28 °C24 °C79 %1011.9 hPa16.1 kmCalm0 mmThunderstormThunderstorm
8:54 PM27.2 °C24.4 °C85 %1011.2 hPa16.1 kmCalm0 mmMostly Cloudy
9:54 PM27.2 °C23.9 °C82 %1011.5 hPa16.1 kmCalmScattered Clouds
10:54 PM27.8 °C23.9 °C79 %1012.2 hPa16.1 kmCalmScattered Clouds
11:54 PM27.2 °C24.4 °C85 %1011.5 hPa16.1 kmNE (40°)7.4 km/hPartly Cloudy
Hourly data recorded from PGUM, located 0 kilometers away from Agat, Guam







STORIES FROM OUR PARTNERS